Temp
6 6 6 6 6 7 8 9 10 10 10 11 11 11 11 11 11 12 11 12 12 12 11 11 11 11 11 11 11 11 11 11 11 11 10 10 10 10 10 10 10 10 10 10 10 10 10 10 10
6 5 6 5 6 6 9 10 10 9 10 10 11 11 10 11 11 11 11 11 11 11 11 11 11 11 11 11 11 11 11 10 10 10 10 10 10 10 10 10 10 10 10 10 10 10 10 10 9
6 5 5 5 5 7 9 10 9 9 10 10 11 11 10 10 11 11 11 11 11 11 11 11 11 11 10 10 10 10 10 10 10 10 10 10 10 9 9 9 10 9 10 10 10 10 10 9 9
5 5 4 5 6 8 9 10 9 9 9 10 10 10 10 10 10 10 11 10 11 11 11 11 11 11 10 10 10 10 10 10 10 10 10 9 10 10 9 9 9 9 9 9 9 9 9 9 9
5 5 5 5 6 8 9 9 8 8 9 9 10 10 9 10 10 10 10 10 10 11 11 11 11 10 10 10 10 10 10 10 10 9 9 9 9 9 9 9 9 9 9 9 9 8 8 8 8
4 4 4 5 7 8 8 9 8 8 8 9 9 9 9 9 9 9 9 10 10 10 10 10 10 10 10 10 10 10 10 10 9 9 9 9 9 9 9 9 9 9 9 9 9 8 8 8 8
5 4 5 6 7 7 9 8 8 8 8 8 9 9 9 9 9 9 9 9 9 10 10 10 10 10 10 10 10 10 10 9 9 9 9 9 9 9 9 8 8 8 8 8 8 8 8 8 7
4 4 5 6 6 7 8 7 7 7 8 8 9 9 9 9 9 9 9 9 9 9 10 10 10 10 10 10 9 9 9 9 9 9 9 9 9 8 8 8 8 8 8 8 8 8 8 8 7
4 3 4 6 6 8 8 7 7 7 8 8 9 9 9 9 8 8 8 9 9 9 9 9 10 10 9 9 9 9 9 9 9 9 9 9 9 9 8 8 8 8 8 8 8 7 7 7 7
3 3 4 5 6 6 7 6 7 7 7 8 8 8 8 9 8 8 8 8 8 9 9 9 9 9 9 9 9 9 9 9 9 9 9 9 8 8 8 8 8 8 8 8 7 7 7 7 7
2 3 4 5 5 5 5 6 6 6 7 7 8 8 8 8 8 8 8 8 8 8 8 8 8 9 9 9 9 9 9 9 9 9 9 8 8 8 8 8 8 8 8 7 7 7 7 7 7
2 2 3 5 5 5 4 5 5 5 6 7 7 7 6 7 7 8 7 7 7 8 8 8 8 8 8 8 8 8 9 8 8 8 8 8 8 8 8 8 8 8 7 7 7 7 7 7 7
1 2 3 4 4 4 3 3 5 6 5 6 7 7 7 7 7 7 7 7 7 7 7 8 8 8 8 8 8 8 8 8 8 8 8 8 8 8 8 8 7 7 7 7 7 7 7 7 7
0 1 2 2 3 3 3 3 4 6 6 5 6 6 7 7 7 7 7 7 6 7 7 7 8 8 8 8 8 8 8 8 8 8 8 8 7 7 7 7 7 7 7 7 6 6 7 7 7
0 0 1 2 3 3 3 4 4 5 6 6 5 6 6 6 6 6 6 6 6 6 6 7 7 7 8 8 8 7 7 7 7 7 7 7 7 7 7 7 7 7 6 6 6 6 7 6 7
-0 0 1 1 3 3 3 4 5 5 5 5 6 6 6 6 6 6 6 6 6 5 5 6 6 6 7 7 7 6 6 7 7 7 7 7 7 7 7 7 6 6 6 6 6 6 6 6 5
0 0 0 2 2 2 2 3 5 5 5 5 6 6 6 7 6 6 5 5 6 6 6 5 5 6 6 6 6 6 6 6 6 6 7 6 6 6 6 6 6 6 6 6 5 5 5 5 4
0 1 1 1 2 2 2 2 3 3 4 5 6 6 7 7 8 7 6 5 6 5 5 5 5 5 5 5 6 6 6 6 6 6 6 6 6 6 6 6 6 5 5 5 4 4 4 4 4
0 0 -0 1 1 1 2 1 4 5 5 5 6 7 7 7 7 7 7 6 6 6 5 5 5 5 5 5 5 6 6 6 6 6 6 6 6 5 5 5 6 5 4 4 4 4 3 3 3
-1 -1 0 1 1 0 2 2 4 6 5 6 6 7 8 7 7 7 7 7 6 7 7 6 5 4 4 5 5 5 5 5 5 5 5 5 5 6 4 5 5 4 4 4 3 3 3 3 3
-1 -1 -1 -0 1 1 2 3 4 7 7 8 8 8 7 8 8 8 7 7 7 7 6 6 6 5 4 4 4 4 4 4 4 5 5 5 5 5 4 4 4 4 4 4 3 3 2 2 2
-2 -1 -1 -1 -1 -0 1 -1 5 6 7 7 7 7 7 7 7 7 7 7 7 6 5 5 5 5 4 4 4 4 4 4 4 4 4 5 5 5 4 4 4 4 4 4 3 2 2 2 2
-2 -1 -1 -1 -2 -2 -0 -1 5 6 7 6 6 6 6 6 6 6 7 7 6 5 5 4 4 4 4 4 4 3 3 3 3 3 3 4 4 4 4 4 4 4 4 3 3 3 2 2 2
-2 -2 -2 -2 -2 -5 -1 -1 4 5 5 6 5 5 6 6 6 6 6 6 6 6 5 5 4 3 3 3 3 3 3 3 3 3 3 3 4 4 4 3 3 3 4 3 3 2 2 2 1
-3 -2 -5 -6 -7 -5 -2 -3 4 3 4 4 4 4 4 4 4 4 4 4 4 4 4 4 4 3 3 3 3 3 3 3 3 2 2 3 3 3 3 3 3 3 3 3 3 2 2 1 1
-3 -3 -3 -6 -6 -4 -1 -2 3 3 4 3 3 3 3 3 3 3 3 3 2 2 3 3 3 3 3 3 3 3 3 3 2 2 2 2 2 3 3 3 2 3 3 3 3 2 2 1 1
-3 -4 -3 -4 -4 -6 -1 0 3 3 4 4 3 3 3 3 3 2 2 3 2 2 2 2 2 2 2 2 2 2 2 2 2 2 2 2 2 2 2 2 2 2 3 3 2 1 1 1 0
-3 -3 -4 -4 -8 -7 -3 -1 3 2 2 2 2 2 2 2 2 2 2 2 2 2 1 1 1 1 1 2 2 3 2 2 2 2 2 2 2 2 2 2 2 2 3 3 1 1 0 1 0
-4 -4 -4 -3 -4 -8 -7 0 3 2 2 2 2 1 0 1 1 1 1 1 1 1 1 -0 0 0 0 1 1 1 2 2 1 1 1 1 2 2 2 2 2 2 1 1 1 1 -0 -0 -0
-4 -4 -4 -3 -4 -4 -5 -1 1 2 1 1 -0 0 0 0 0 0 0 -0 -1 -1 -1 -1 -1 -1 -0 -0 1 1 2 1 1 1 1 1 1 1 1 1 2 1 2 0 0 0 0 -1 -2
Height
3143 3144 3147 3149 3154 3149 3145 3146 3147 3148 3150 3151 3152 3152 3152 3154 3155 3158 3156 3158 3159 3161 3163 3164 3165 3167 3169 3170 3170 3170 3169 3168 3167 3167 3166 3165 3164 3163 3163 3162 3160 3160 3159 3159 3159 3159 3160 3160 3160
3138 3141 3144 3145 3147 3144 3142 3143 3145 3147 3147 3148 3150 3150 3150 3152 3154 3154 3156 3157 3158 3160 3162 3163 3165 3166 3168 3169 3169 3170 3170 3169 3168 3167 3166 3165 3165 3164 3163 3162 3161 3160 3160 3160 3160 3160 3160 3160 3160
3134 3136 3140 3140 3139 3138 3137 3142 3145 3144 3145 3147 3148 3148 3147 3150 3152 3154 3155 3157 3158 3159 3160 3162 3164 3165 3167 3168 3168 3169 3169 3169 3168 3167 3166 3165 3164 3164 3163 3162 3161 3160 3160 3159 3159 3159 3159 3159 3159
3129 3133 3135 3132 3131 3134 3135 3140 3142 3142 3143 3145 3145 3145 3145 3147 3150 3152 3154 3156 3158 3158 3159 3161 3163 3164 3165 3166 3167 3167 3168 3167 3167 3166 3165 3165 3164 3163 3163 3162 3161 3160 3160 3159 3159 3158 3158 3158 3159
3124 3126 3127 3125 3126 3129 3133 3136 3140 3140 3140 3142 3143 3143 3143 3144 3147 3150 3152 3154 3156 3157 3158 3160 3161 3162 3164 3165 3166 3166 3167 3167 3166 3166 3165 3164 3164 3163 3162 3161 3160 3160 3159 3159 3159 3159 3158 3158 3158
3119 3121 3120 3119 3122 3126 3130 3134 3137 3137 3139 3141 3141 3141 3142 3141 3144 3147 3150 3152 3154 3156 3157 3158 3159 3161 3162 3164 3165 3166 3166 3166 3166 3165 3165 3164 3163 3162 3162 3162 3161 3160 3159 3159 3159 3158 3159 3158 3158
3113 3115 3114 3118 3120 3124 3127 3132 3133 3134 3136 3137 3138 3138 3140 3140 3140 3145 3147 3150 3152 3154 3155 3156 3158 3159 3160 3162 3163 3164 3164 3165 3165 3165 3164 3164 3163 3162 3161 3161 3161 3160 3160 3160 3159 3159 3158 3158 3158
3110 3111 3111 3113 3115 3119 3126 3128 3130 3130 3130 3135 3134 3132 3137 3140 3136 3140 3144 3147 3149 3151 3153 3154 3155 3156 3158 3159 3161 3162 3163 3163 3164 3164 3164 3164 3162 3162 3161 3160 3160 3160 3160 3159 3159 3159 3159 3158 3157
3105 3105 3103 3108 3112 3115 3123 3123 3125 3127 3127 3130 3130 3130 3134 3136 3135 3135 3140 3143 3146 3148 3150 3151 3153 3154 3155 3157 3158 3160 3161 3161 3162 3162 3162 3163 3162 3161 3161 3160 3159 3159 3159 3159 3158 3158 3158 3157 3156
3098 3096 3097 3105 3109 3113 3118 3118 3120 3123 3125 3126 3126 3128 3130 3132 3133 3133 3136 3139 3142 3144 3146 3148 3150 3151 3152 3154 3155 3157 3158 3159 3159 3160 3160 3161 3160 3161 3161 3160 3160 3159 3159 3158 3158 3157 3156 3156 3155
3090 3089 3096 3100 3106 3108 3110 3113 3115 3118 3121 3123 3123 3126 3126 3128 3130 3129 3132 3135 3138 3140 3142 3144 3146 3148 3149 3151 3152 3153 3155 3156 3156 3157 3158 3158 3158 3158 3159 3159 3159 3158 3158 3157 3157 3156 3155 3155 3153
3086 3087 3093 3097 3103 3104 3105 3107 3108 3112 3117 3121 3119 3119 3119 3122 3125 3127 3126 3131 3134 3136 3138 3140 3142 3144 3146 3148 3149 3150 3151 3152 3153 3153 3155 3155 3156 3156 3157 3157 3157 3156 3156 3155 3154 3154 3153 3153 3151
3081 3085 3089 3094 3098 3097 3098 3099 3102 3104 3111 3115 3117 3116 3117 3117 3120 3122 3124 3125 3128 3131 3134 3136 3138 3140 3143 3144 3145 3146 3147 3148 3149 3149 3151 3152 3152 3153 3153 3154 3154 3154 3154 3153 3152 3152 3151 3150 3149
3077 3082 3087 3088 3091 3093 3093 3093 3094 3097 3106 3108 3110 3111 3113 3112 3115 3116 3118 3120 3121 3124 3128 3131 3133 3136 3138 3140 3141 3142 3143 3144 3144 3146 3147 3148 3149 3150 3150 3150 3150 3150 3150 3150 3150 3150 3149 3148 3146
3074 3081 3082 3083 3087 3088 3090 3086 3080 3091 3100 3101 3102 3104 3106 3107 3108 3108 3112 3114 3117 3118 3120 3123 3127 3129 3131 3134 3135 3137 3139 3139 3141 3141 3142 3144 3145 3146 3147 3147 3147 3146 3146 3146 3146 3146 3145 3144 3143
3075 3078 3079 3080 3083 3084 3088 3069 3078 3089 3091 3091 3093 3095 3096 3099 3101 3103 3105 3107 3111 3113 3115 3117 3119 3122 3125 3128 3130 3132 3133 3135 3137 3138 3139 3140 3142 3143 3143 3143 3143 3143 3142 3142 3142 3141 3140 3139 3138
3070 3072 3075 3076 3079 3080 3077 3069 3076 3082 3081 3081 3084 3085 3086 3089 3091 3095 3097 3101 3104 3108 3110 3111 3111 3114 3118 3121 3124 3126 3128 3129 3130 3133 3134 3136 3138 3138 3138 3138 3138 3138 3138 3137 3137 3137 3137 3135 3134
3066 3069 3070 3071 3075 3072 3070 3067 3070 3074 3075 3073 3075 3076 3078 3080 3082 3088 3090 3093 3098 3101 3103 3106 3107 3107 3110 3113 3116 3119 3121 3124 3125 3126 3128 3131 3132 3133 3134 3134 3133 3133 3133 3133 3133 3132 3132 3131 3130
3064 3065 3067 3067 3069 3066 3065 3063 3063 3067 3066 3067 3067 3069 3072 3074 3077 3077 3080 3084 3087 3091 3096 3097 3101 3101 3103 3104 3106 3110 3114 3118 3119 3120 3122 3125 3128 3128 3129 3129 3128 3128 3128 3128 3128 3129 3128 3128 3127
3061 3063 3064 3064 3065 3064 3061 3056 3059 3060 3059 3061 3061 3061 3064 3065 3068 3071 3074 3076 3078 3082 3085 3088 3092 3095 3094 3097 3099 3100 3106 3109 3112 3113 3115 3117 3122 3123 3124 3124 3123 3123 3123 3123 3123 3124 3124 3124 3124
3058 3060 3062 3063 3062 3061 3058 3051 3053 3053 3050 3051 3052 3055 3057 3058 3060 3063 3065 3068 3070 3072 3075 3078 3081 3085 3087 3089 3091 3093 3096 3099 3100 3106 3108 3111 3115 3117 3118 3118 3118 3118 3119 3118 3118 3119 3119 3119 3119
3056 3057 3059 3060 3061 3060 3058 3051 3046 3048 3047 3047 3049 3049 3051 3052 3053 3055 3057 3058 3060 3063 3066 3068 3072 3074 3077 3080 3082 3085 3088 3090 3094 3099 3102 3104 3108 3109 3110 3112 3112 3114 3113 3113 3113 3113 3113 3113 3113
3054 3055 3057 3058 3059 3057 3054 3056 3041 3042 3042 3043 3044 3046 3046 3047 3047 3049 3050 3051 3052 3054 3056 3059 3062 3065 3068 3069 3072 3076 3078 3082 3086 3090 3093 3096 3099 3102 3104 3106 3106 3106 3107 3107 3108 3108 3108 3108 3107
3051 3054 3056 3056 3057 3056 3048 3051 3041 3040 3041 3042 3043 3044 3044 3044 3044 3045 3045 3046 3047 3047 3048 3050 3053 3056 3060 3062 3063 3066 3068 3073 3077 3080 3084 3088 3092 3095 3097 3099 3100 3101 3101 3101 3102 3102 3101 3102 3101
3049 3053 3057 3060 3059 3052 3046 3047 3038 3039 3040 3041 3041 3041 3042 3042 3041 3040 3040 3040 3040 3042 3044 3045 3047 3048 3049 3051 3053 3055 3058 3064 3069 3073 3076 3080 3084 3087 3090 3093 3094 3094 3094 3095 3094 3094 3095 3094 3094
3047 3052 3052 3057 3056 3049 3044 3039 3036 3036 3037 3037 3038 3037 3036 3036 3036 3035 3035 3035 3036 3037 3038 3038 3039 3041 3042 3043 3044 3045 3048 3053 3057 3063 3068 3071 3075 3079 3082 3084 3086 3086 3086 3087 3086 3086 3086 3085 3086
3045 3048 3051 3051 3052 3051 3040 3036 3034 3032 3034 3034 3033 3033 3033 3032 3030 3030 3029 3028 3028 3029 3029 3030 3031 3031 3032 3033 3033 3035 3039 3044 3049 3054 3057 3060 3065 3068 3072 3075 3077 3078 3079 3079 3078 3079 3079 3078 3076
3044 3047 3050 3050 3055 3054 3039 3035 3029 3031 3031 3031 3031 3030 3028 3026 3025 3023 3021 3020 3019 3019 3020 3020 3021 3020 3020 3021 3022 3024 3028 3034 3040 3044 3047 3052 3056 3059 3063 3067 3069 3070 3070 3070 3072 3071 3070 3070 3069
3042 3043 3046 3047 3047 3049 3048 3031 3028 3029 3029 3028 3027 3023 3020 3019 3017 3015 3013 3010 3009 3008 3009 3010 3010 3010 3010 3011 3013 3015 3018 3023 3031 3035 3039 3044 3047 3051 3055 3058 3060 3062 3062 3064 3064 3063 3059 3061 3060
3039 3041 3043 3042 3045 3046 3047 3031 3025 3026 3027 3025 3020 3016 3014 3011 3007 3004 3000 2998 2997 2998 2999 2999 3000 3000 3001 3003 3005 3007 3010 3015 3022 3028 3032 3036 3039 3043 3047 3050 3052 3053 3055 3056 3054 3055 3054 3051 3051
Wind_Speed
20 19 17 15 10 11 15 12 15 6 5 8 11 10 8 10 6 5 3 12 14 15 13 10 8 6 2 3 7 9 7 5 5 5 5 5 4 4 4 4 3 3 3 2 0 1 1 2 0
22 20 19 16 14 18 21 16 11 10 9 8 14 17 9 9 10 8 3 12 17 16 13 11 10 8 4 3 7 9 7 5 4 5 5 5 5 4 4 4 4 4 2 2 1 0 1 1 0
24 22 20 16 20 27 25 12 5 5 9 11 16 15 18 16 17 13 8 4 12 14 13 11 10 7 3 2 4 6 5 5 6 6 6 6 5 4 4 3 3 3 3 3 2 3 3 3 3
26 24 24 23 25 27 25 15 8 6 10 15 12 14 15 18 22 17 13 8 8 12 12 12 11 8 2 1 3 4 5 5 4 5 5 6 5 5 4 4 3 3 2 2 2 2 3 3 4
26 27 29 26 34 31 23 20 9 10 7 16 15 14 10 15 13 14 15 14 11 12 12 13 12 8 4 4 4 6 6 7 6 5 4 4 5 6 5 5 5 4 3 2 2 2 3 4 5
27 30 23 34 35 31 25 15 13 9 9 14 18 18 12 10 13 12 15 13 12 16 16 15 14 9 7 6 8 8 5 8 7 6 5 5 5 6 5 5 5 5 4 3 3 2 2 3 4
30 31 34 33 33 30 23 19 18 16 16 20 20 19 20 16 13 12 10 16 14 17 18 17 15 11 11 10 10 11 10 7 8 6 5 6 6 6 5 5 5 5 5 4 3 2 2 4 5
31 32 34 35 34 32 20 19 19 18 17 22 24 23 22 22 21 18 14 12 16 18 19 19 17 15 14 13 13 13 13 11 10 9 7 7 7 7 6 5 4 4 4 4 5 5 6 6 7
31 36 38 38 35 33 20 22 21 12 14 22 31 27 22 21 21 20 18 18 19 20 21 21 19 18 17 16 16 15 15 14 12 12 10 9 7 7 6 5 4 4 4 5 5 6 6 8 9
36 42 41 39 35 27 26 27 26 16 13 22 29 27 25 25 25 25 21 19 18 22 21 20 19 19 19 18 17 16 17 16 15 14 13 12 9 7 7 6 6 6 6 6 7 7 8 9 11
39 43 42 32 34 29 32 28 26 16 21 26 27 26 28 27 27 25 25 22 20 18 19 20 20 19 19 19 19 19 19 19 18 17 16 14 12 10 8 8 7 7 6 6 8 9 10 11 12
36 39 38 33 31 28 30 32 32 24 24 28 31 28 23 25 31 31 30 28 25 24 24 22 23 23 22 21 20 21 20 20 20 19 18 16 15 14 11 10 10 9 8 7 8 9 11 14 15
36 34 35 33 29 28 33 34 36 37 27 30 34 35 33 33 34 39 38 32 32 30 28 28 27 25 24 23 23 22 22 22 22 21 20 19 17 16 14 14 13 12 11 10 9 10 12 12 15
22 31 28 30 30 36 35 37 40 42 35 32 34 37 38 41 41 41 41 38 36 35 36 33 32 31 30 29 27 24 24 22 21 22 21 20 18 17 15 15 14 15 14 13 13 15 16 15 15
26 16 18 24 31 34 35 45 50 41 38 40 39 39 40 40 43 46 44 42 37 36 35 36 36 34 33 30 28 25 24 23 21 20 19 17 17 16 16 16 16 16 15 15 16 16 17 18 18
21 19 23 23 23 27 27 51 43 37 36 39 42 47 50 43 44 44 43 45 39 36 35 34 34 34 33 30 28 26 25 24 20 20 21 19 19 19 18 16 17 18 18 19 19 17 18 19 18
16 20 23 24 21 27 31 39 33 27 36 38 36 40 47 47 47 53 50 46 43 40 38 38 40 38 37 35 31 29 29 27 24 25 25 22 22 21 21 20 22 23 21 20 19 18 18 19 19
15 19 22 23 14 13 24 31 27 24 27 27 30 35 39 39 42 44 54 53 49 44 42 41 43 43 40 38 38 35 32 30 30 29 27 22 21 21 21 21 23 22 20 19 18 18 19 19 18
13 11 10 15 15 21 26 29 31 28 32 32 28 27 30 29 25 36 45 49 52 51 51 48 45 45 45 42 41 40 37 34 33 31 30 27 23 23 22 20 23 21 18 18 18 18 19 18 18
20 18 16 17 17 22 27 34 32 30 32 29 28 29 27 29 27 28 32 37 43 45 48 51 53 50 49 47 43 46 41 39 37 34 34 31 26 26 23 21 22 22 20 20 20 20 20 19 21
14 20 20 18 20 23 30 38 33 25 28 26 24 22 25 27 26 27 30 32 35 37 37 39 45 52 50 48 43 45 44 43 41 38 36 36 29 27 25 22 22 23 23 22 23 22 21 21 23
13 17 19 20 17 10 12 10 22 17 19 15 14 16 16 19 21 23 27 34 38 38 39 39 40 44 54 53 47 48 48 47 45 40 38 38 35 31 26 24 22 24 25 26 24 26 25 24 23
14 15 16 15 15 18 20 9 9 8 12 11 14 13 12 12 16 17 18 23 28 35 40 43 43 44 45 52 54 51 48 47 46 43 40 40 39 35 31 26 23 25 26 29 28 27 27 27 24
16 14 10 11 12 4 7 12 8 2 7 5 1 5 7 10 14 13 13 14 16 23 31 38 42 47 45 50 54 54 52 47 46 47 44 42 39 38 33 29 27 26 29 31 30 30 30 29 29
19 10 1 2 1 6 2 6 10 6 1 1 7 12 12 12 15 18 21 23 25 24 23 21 27 37 42 50 55 59 57 54 51 46 46 43 43 39 36 32 30 28 30 32 32 33 32 29 30
19 14 4 5 2 4 4 6 2 3 9 10 8 9 11 13 14 18 22 23 24 25 27 29 28 28 29 37 47 53 56 52 50 47 47 45 43 45 42 34 30 29 31 35 34 35 33 29 35
14 11 10 2 4 2 5 5 10 2 4 9 12 15 17 21 23 25 27 30 32 33 34 34 32 36 36 36 39 46 49 47 43 43 50 46 45 43 41 36 33 32 35 38 35 35 34 34 30
7 12 6 5 1 3 6 9 10 5 3 5 8 12 17 22 27 31 34 37 37 36 36 38 39 35 33 31 34 43 44 46 43 40 41 38 38 39 39 37 35 37 39 37 36 33 34 31 33
18 14 7 5 3 3 2 8 4 6 10 18 24 18 27 31 35 38 39 43 44 41 42 38 39 37 33 30 30 34 39 43 43 40 37 35 36 36 37 37 37 38 33 30 29 41 34 31 40
23 17 16 4 3 3 2 10 2 5 13 19 26 38 40 30 25 27 28 27 31 36 33 39 41 39 28 25 28 25 32 36 37 36 34 33 32 32 35 37 38 32 29 33 32 37 37 34 32
Wind_Direction
229 234 235 237 237 235 236 232 217 178 196 239 234 251 258 241 228 240 189 217 191 183 182 170 172 164 140 34 8 9 4 3 12 15 19 20 17 18 19 24 42 57 73 78 101 294 286 283 192
229 229 231 231 226 231 240 228 207 258 212 237 274 256 251 235 230 209 91 182 188 186 182 176 173 155 137 42 19 3 355 348 2 16 23 24 21 21 26 33 32 40 36 56 53 345 322 353 182
226 225 225 221 225 226 237 216 180 284 214 229 261 259 249 236 237 236 229 204 199 194 181 185 184 177 144 35 16 354 338 343 351 360 10 22 21 24 22 21 23 30 18 0 353 329 321 308 282
222 220 222 221 223 234 234 225 197 190 214 242 245 261 250 243 233 235 237 239 220 200 194 195 195 187 236 298 316 332 326 322 332 349 5 14 18 21 22 18 15 9 0 340 326 307 294 272 264
218 220 221 227 233 239 235 238 201 194 216 244 256 251 230 227 231 229 240 246 236 220 211 207 203 201 232 262 268 307 336 316 320 333 347 8 11 14 18 20 21 15 11 352 319 288 271 264 263
211 214 219 228 235 237 230 217 218 212 205 237 257 243 216 227 231 227 238 243 242 221 215 210 203 218 227 247 253 265 285 319 310 319 335 354 2 5 7 15 20 23 27 23 6 339 304 287 285
212 217 225 235 239 239 224 228 236 230 234 235 253 248 225 237 239 225 216 231 247 225 216 209 218 237 240 242 258 254 253 279 293 306 317 343 345 352 356 1 8 18 18 17 3 347 328 310 303
216 220 226 232 236 237 227 230 234 252 244 230 242 248 248 236 248 243 235 225 228 230 219 221 230 238 242 243 250 254 254 260 274 286 291 321 337 338 340 342 352 359 1 0 357 349 333 308 296
216 220 225 230 234 239 221 230 229 251 243 226 236 243 253 239 241 242 236 233 236 232 235 234 239 239 239 244 251 254 256 261 267 275 277 286 305 324 330 332 330 334 340 343 340 338 321 309 302
216 223 228 230 232 237 232 236 238 235 223 227 234 238 242 242 241 248 245 245 244 236 238 244 245 242 242 246 249 252 256 261 265 267 271 275 280 292 304 310 315 322 331 337 336 324 316 313 308
218 227 231 234 232 236 234 229 232 231 227 226 224 235 248 234 233 243 244 242 245 250 240 243 245 245 248 247 247 251 257 261 263 265 268 272 272 273 277 283 288 300 312 320 322 323 320 314 305
220 228 232 238 235 235 238 232 231 223 220 221 223 216 218 230 232 234 246 248 245 248 251 250 249 251 254 255 255 253 255 258 261 261 263 266 268 268 269 269 274 280 284 292 304 317 317 314 309
223 225 231 235 231 231 234 239 229 228 217 225 228 229 232 237 237 242 241 250 249 244 243 246 247 249 251 254 255 258 259 260 258 259 260 261 261 262 263 265 269 272 278 283 293 305 303 303 303
223 233 232 234 233 235 236 238 238 227 220 223 231 235 237 239 239 235 236 240 247 249 245 244 248 252 254 254 257 260 258 258 256 260 260 258 258 257 255 260 266 269 274 274 286 300 296 300 300
211 214 229 227 232 236 238 241 238 240 228 229 235 235 236 245 240 239 237 238 244 250 255 253 252 253 254 254 255 256 260 258 257 258 258 255 257 259 260 263 268 272 276 281 284 288 294 296 294
218 226 236 236 240 243 238 250 246 246 245 243 241 243 244 236 235 239 235 240 237 239 244 250 252 252 256 254 252 256 255 259 256 247 251 257 260 263 264 266 271 273 278 282 286 290 288 286 283
208 228 241 256 257 250 242 256 263 256 249 249 245 244 244 245 241 233 238 236 239 240 239 241 245 251 255 257 256 254 255 256 256 252 256 258 262 261 268 267 272 277 279 282 288 284 283 282 279
222 236 247 251 236 243 245 258 259 254 252 251 245 248 247 247 245 237 236 240 240 239 240 239 242 247 251 256 258 254 251 253 254 253 259 258 262 264 267 271 274 273 275 282 285 283 282 280 277
220 206 240 238 240 258 246 250 253 252 248 250 250 253 252 250 249 233 232 237 241 240 238 242 237 242 247 248 249 252 251 251 253 255 258 258 262 263 266 272 275 270 273 278 280 279 278 278 279
229 230 241 248 251 259 258 260 266 271 271 267 257 255 256 252 243 236 234 234 238 242 241 236 238 239 244 245 251 255 256 255 251 255 254 255 257 263 263 266 272 267 268 273 277 273 271 274 283
215 232 252 266 264 262 268 275 278 277 266 265 256 250 250 255 251 242 238 236 237 238 238 238 236 233 238 241 242 249 253 252 250 250 250 256 259 264 262 261 271 265 268 267 273 270 266 274 280
217 236 250 264 276 275 273 291 271 263 262 257 259 255 244 241 240 239 237 237 238 239 241 241 238 230 231 235 240 244 250 255 258 258 255 258 259 260 256 264 272 263 263 265 271 268 268 273 275
223 239 250 261 273 285 278 241 282 267 272 230 262 267 269 258 253 250 248 243 238 237 239 239 239 238 233 236 240 243 249 250 255 256 254 251 254 256 255 261 273 271 265 264 265 269 271 273 275
231 239 245 266 279 273 259 218 279 124 108 96 199 280 277 279 272 267 272 269 262 244 237 236 238 240 238 237 239 242 243 245 245 250 251 255 255 254 254 259 270 274 268 267 265 265 270 271 284
214 210 354 330 290 227 300 210 227 151 83 282 266 264 266 272 283 290 288 288 289 284 269 259 253 245 239 236 239 240 243 245 246 247 251 252 255 255 255 261 266 272 268 266 264 265 268 266 273
206 209 190 209 222 290 256 235 122 208 281 259 260 266 261 269 266 265 268 273 277 276 271 271 267 264 263 253 244 241 241 246 247 246 248 251 252 257 256 254 258 268 269 266 263 262 265 255 270
196 211 227 243 258 309 262 278 293 314 242 254 255 258 257 264 263 261 262 266 268 270 271 271 270 275 271 256 250 248 245 242 243 247 249 250 257 255 249 247 255 263 268 265 261 259 259 273 267
216 199 180 201 115 273 285 276 231 214 204 215 254 259 258 256 254 252 258 260 258 260 265 270 275 274 268 262 250 249 248 246 242 244 247 246 249 247 244 246 251 257 261 262 251 255 256 259 268
196 191 194 193 206 174 320 271 247 261 248 286 301 282 291 285 282 277 275 269 262 258 264 266 268 269 270 265 258 250 242 240 239 237 243 242 245 244 241 244 250 254 252 249 260 253 254 260 261
221 212 211 199 189 217 238 271 152 278 309 314 290 292 286 285 298 303 302 297 268 263 265 269 270 276 273 262 247 245 237 233 234 235 241 243 242 239 239 244 248 248 239 262 248 266 263 251 262